Location: Gwatt
(46.7204°N, 7.6223°E)
Time: 08:24:02
(UTC+00:00)

Vanguard 2 - Pass Details

Date: 24 January 2021
Orbit: 552 x 2938 km, 32.9° (Epoch: 24 February)

Event Time Altitude Azimuth Distance (km) Brightness Sun altitude
Rises 20:56:39 0° 247° (WSW) 3,394 11.2 -46.4°
Enters shadow 20:57:42 - 240° (WSW) 3,204 11.0 -46.6°
Reaches altitude 10° 21:01:31 10° 210° (SSW) 2,939 - -47.1°
Maximum altitude 21:03:04 11° 197° (SSW) 3,043 - -47.4°
Drops below altitude 10° 21:04:44 10° 185° (S) 3,274 - -47.6°
Sets 21:11:52 0° 153° (SSE) 4,992 - -48.7°
